Time,TemperatureF,DewpointF,PressureIn,WindDirection,WindDirectionDegrees,WindSpeedMPH,WindSpeedGustMPH,Humidity,HourlyPrecipIn,Conditions,Clouds,dailyrainin,SolarRadiationWatts/m^2,SoftwareType,DateUTC
2013-01-06 00:01:00,16.1,12.4,30.18,WNW,286,0.0,0.0,85,0.00,,CLR,0.00,0.00,VWS V14.01,2013-01-06 05:01:00,
2013-01-06 00:11:00,16.5,12.8,30.18,WNW,286,0.0,0.0,85,0.00,,CLR,0.00,0.00,VWS V14.01,2013-01-06 05:11:00,
2013-01-06 00:21:00,16.2,12.2,30.18,WNW,286,0.0,1.0,84,0.00,,CLR,0.00,0.00,VWS V14.01,2013-01-06 05:21:00,
2013-01-06 00:31:00,15.9,11.9,30.17,WNW,286,0.0,2.0,84,0.00,,CLR,0.00,0.00,VWS V14.01,2013-01-06 05:31:00,
2013-01-06 00:41:00,15.7,11.7,30.17,WNW,286,0.0,2.0,84,0.00,,CLR,0.00,0.00,VWS V14.01,2013-01-06 05:41:00,
2013-01-06 00:51:00,15.9,12.2,30.17,WNW,286,0.0,3.0,85,0.00,,CLR,0.00,0.00,VWS V14.01,2013-01-06 05:51:00,
2013-01-06 01:01:00,15.7,12.0,30.16,WNW,286,0.0,0.0,85,0.00,,CLR,0.00,0.00,VWS V14.01,2013-01-06 06:01:00,
2013-01-06 01:11:00,16.1,12.4,30.16,WNW,286,0.0,2.0,85,0.00,,CLR,0.00,0.00,VWS V14.01,2013-01-06 06:11:00,
2013-01-06 01:21:00,16.1,12.7,30.16,WNW,286,0.0,0.0,86,0.00,,CLR,0.00,0.00,VWS V14.01,2013-01-06 06:21:00,
2013-01-06 01:31:00,16.9,13.4,30.16,WNW,286,2.0,2.0,86,0.00,,CLR,0.00,0.00,VWS V14.01,2013-01-06 06:31:00,
2013-01-06 01:41:00,17.2,13.5,30.16,WNW,286,5.0,5.0,85,0.00,,CLR,0.00,0.00,VWS V14.01,2013-01-06 06:41:00,
2013-01-06 01:51:00,17.0,12.7,30.18,WNW,286,0.0,5.0,83,0.00,,CLR,0.00,0.00,VWS V14.01,2013-01-06 06:51:00,
2013-01-06 02:01:00,17.2,12.7,30.18,WNW,286,0.0,0.0,82,0.00,,CLR,0.00,0.00,VWS V14.01,2013-01-06 07:01:00,
2013-01-06 02:11:00,17.3,12.8,30.18,WNW,286,0.0,2.0,82,0.00,,CLR,0.00,0.00,VWS V14.01,2013-01-06 07:11:00,
2013-01-06 02:21:00,17.5,12.9,30.17,WNW,286,0.0,0.0,82,0.00,,CLR,0.00,0.00,VWS V14.01,2013-01-06 07:21:00,
2013-01-06 02:31:00,17.5,13.2,30.16,WNW,286,1.0,2.0,83,0.00,,CLR,0.00,0.00,VWS V14.01,2013-01-06 07:31:00,
2013-01-06 02:41:00,17.8,13.5,30.16,WNW,286,0.0,3.0,83,0.00,,CLR,0.00,0.00,VWS V14.01,2013-01-06 07:41:00,
2013-01-06 02:51:00,18.0,13.4,30.15,WNW,286,0.0,2.0,82,0.00,,CLR,0.00,0.00,VWS V14.01,2013-01-06 07:51:00,
2013-01-06 03:01:00,18.1,13.5,30.15,WNW,286,1.0,2.0,82,0.00,,CLR,0.00,0.00,VWS V14.01,2013-01-06 08:01:00,
2013-01-06 03:11:00,18.0,13.4,30.15,WNW,286,1.0,2.0,82,0.00,,CLR,0.00,0.00,VWS V14.01,2013-01-06 08:11:00,
2013-01-06 03:21:00,18.1,13.5,30.13,WNW,286,0.0,1.0,82,0.00,,CLR,0.00,0.00,VWS V14.01,2013-01-06 08:21:00,
2013-01-06 03:31:00,18.4,14.1,30.13,WNW,286,2.0,2.0,83,0.00,,CLR,0.00,0.00,VWS V14.01,2013-01-06 08:31:00,
2013-01-06 03:41:00,18.4,14.1,30.13,WNW,286,0.0,2.0,83,0.00,,CLR,0.00,0.00,VWS V14.01,2013-01-06 08:41:00,
2013-01-06 03:51:00,18.6,14.3,30.13,WNW,286,0.0,0.0,83,0.00,,CLR,0.00,0.00,VWS V14.01,2013-01-06 08:51:00,
2013-01-06 04:01:00,18.8,14.5,30.12,WNW,286,0.0,0.0,83,0.00,,CLR,0.00,0.00,VWS V14.01,2013-01-06 09:01:00,
2013-01-06 04:11:00,19.1,14.8,30.12,WNW,287,0.0,3.0,83,0.00,,OVC110,0.00,0.00,VWS V14.01,2013-01-06 09:11:00,
2013-01-06 04:21:00,19.4,14.5,30.11,East,81,3.0,4.0,81,0.00,,OVC110,0.00,0.00,VWS V14.01,2013-01-06 09:21:00,
2013-01-06 04:31:00,19.5,14.1,30.10,East,82,2.0,4.0,79,0.00,,OVC110,0.00,0.00,VWS V14.01,2013-01-06 09:31:00,
2013-01-06 04:41:00,19.7,14.3,30.10,East,82,1.0,4.0,79,0.00,,OVC043,0.00,0.00,VWS V14.01,2013-01-06 09:41:00,
2013-01-06 04:51:00,19.7,13.7,30.08,NE,56,2.0,5.0,77,0.00,,OVC043,0.00,0.00,VWS V14.01,2013-01-06 09:51:00,
2013-01-06 05:01:00,19.9,13.9,30.07,NE,40,1.0,3.0,77,0.00,,OVC043,0.00,0.00,VWS V14.01,2013-01-06 10:01:00,
2013-01-06 05:11:00,19.9,13.6,30.07,NE,40,2.0,3.0,76,0.00,,OVC075,0.00,0.00,VWS V14.01,2013-01-06 10:11:00,
2013-01-06 05:21:00,20.0,14.0,30.07,NE,40,0.0,3.0,77,0.00,,OVC075,0.00,0.00,VWS V14.01,2013-01-06 10:21:00,
2013-01-06 05:31:00,20.0,14.0,30.07,NE,40,1.0,2.0,77,0.00,,OVC075,0.00,0.00,VWS V14.01,2013-01-06 10:31:00,
2013-01-06 05:41:00,20.0,14.0,30.07,NE,40,0.0,2.0,77,0.00,,OVC050,0.00,0.00,VWS V14.01,2013-01-06 10:41:00,
2013-01-06 05:51:00,20.0,14.0,30.07,NE,40,3.0,3.0,77,0.00,,OVC050,0.00,0.00,VWS V14.01,2013-01-06 10:51:00,
2013-01-06 06:01:00,20.0,14.3,30.07,NE,40,2.0,3.0,78,0.00,,OVC050,0.00,0.00,VWS V14.01,2013-01-06 11:01:00,
2013-01-06 06:11:00,20.0,14.3,30.07,NE,40,2.0,2.0,78,0.00,,OVC043,0.00,0.00,VWS V14.01,2013-01-06 11:11:00,
2013-01-06 06:21:00,20.0,14.6,30.06,NE,40,0.0,3.0,79,0.00,,OVC043,0.00,0.00,VWS V14.01,2013-01-06 11:21:00,
2013-01-06 06:31:00,20.2,14.7,30.05,NE,40,0.0,2.0,79,0.00,,OVC043,0.00,0.00,VWS V14.01,2013-01-06 11:31:00,
2013-01-06 06:41:00,20.2,14.7,30.05,NE,40,0.0,1.0,79,0.00,,OVC039,0.00,0.00,VWS V14.01,2013-01-06 11:41:00,
2013-01-06 06:51:00,19.9,15.0,30.05,NE,40,0.0,2.0,81,0.00,,OVC039,0.00,0.00,VWS V14.01,2013-01-06 11:51:00,
2013-01-06 07:11:00,19.9,15.9,30.04,NE,40,0.0,0.0,84,0.00,,OVC039,0.00,0.00,VWS V14.01,2013-01-06 12:11:00,
2013-01-06 07:21:00,20.0,16.2,30.04,NE,40,0.0,0.0,85,0.00,,OVC039,0.00,0.00,VWS V14.01,2013-01-06 12:21:00,
2013-01-06 07:31:00,20.0,16.5,30.03,NNW,335,1.0,3.0,86,0.00,,OVC039,0.00,0.00,VWS V14.01,2013-01-06 12:31:00,
2013-01-06 07:41:00,19.7,16.2,30.03,NNW,335,0.0,1.0,86,0.00,,OVC028,0.00,9.00,VWS V14.01,2013-01-06 12:41:00,
2013-01-06 07:51:00,19.7,16.2,30.03,NNW,335,0.0,1.0,86,0.00,,OVC028,0.00,19.00,VWS V14.01,2013-01-06 12:51:00,
2013-01-06 08:01:00,19.7,16.2,30.02,NNW,335,0.0,1.0,86,0.00,,OVC028,0.00,19.00,VWS V14.01,2013-01-06 13:01:00,
2013-01-06 08:11:00,19.9,16.4,30.02,NNW,335,0.0,1.0,86,0.00,,OVC028,0.00,16.00,VWS V14.01,2013-01-06 13:11:00,
2013-01-06 08:21:00,20.2,16.7,30.02,NNW,335,0.0,1.0,86,0.00,,OVC028,0.00,25.00,VWS V14.01,2013-01-06 13:21:00,
2013-01-06 08:31:00,20.3,16.5,30.02,NNW,335,0.0,2.0,85,0.00,,OVC028,0.00,32.00,VWS V14.01,2013-01-06 13:31:00,
2013-01-06 08:41:00,20.6,16.5,30.02,NNW,335,0.0,0.0,84,0.00,,OVC090,0.00,56.00,VWS V14.01,2013-01-06 13:41:00,
2013-01-06 08:51:00,21.0,16.9,30.01,NNW,335,0.0,0.0,84,0.00,,OVC090,0.00,54.00,VWS V14.01,2013-01-06 13:51:00,
2013-01-06 09:01:00,20.8,16.5,30.01,NNW,335,0.0,0.0,83,0.00,,OVC090,0.00,49.00,VWS V14.01,2013-01-06 14:01:00,
2013-01-06 09:11:00,21.0,16.7,30.01,NNW,335,0.0,0.0,83,0.00,,OVC090,0.00,46.00,VWS V14.01,2013-01-06 14:11:00,
2013-01-06 09:21:00,21.3,17.0,30.01,NNW,335,0.0,2.0,83,0.00,,OVC090,0.00,156.00,VWS V14.01,2013-01-06 14:21:00,
2013-01-06 09:31:00,22.2,17.5,30.01,NNW,335,0.0,0.0,82,0.00,,OVC090,0.00,67.00,VWS V14.01,2013-01-06 14:31:00,
2013-01-06 09:41:00,22.9,17.4,30.01,NNW,332,2.0,3.0,79,0.00,,SCT075,0.00,84.00,VWS V14.01,2013-01-06 14:41:00,
2013-01-06 09:51:00,23.6,18.1,30.01,West,269,3.0,4.0,79,0.00,,SCT075,0.00,109.00,VWS V14.01,2013-01-06 14:51:00,
2013-01-06 10:01:00,24.2,18.0,30.01,West,269,0.0,3.0,77,0.00,,SCT075,0.00,197.00,VWS V14.01,2013-01-06 15:01:00,
2013-01-06 10:11:00,24.5,17.7,30.01,West,269,0.0,0.0,75,0.00,,BKN034,0.00,185.00,VWS V14.01,2013-01-06 15:11:00,
2013-01-06 10:21:00,25.1,18.3,29.99,West,269,0.0,0.0,75,0.00,,BKN034,0.00,439.00,VWS V14.01,2013-01-06 15:21:00,
2013-01-06 10:31:00,26.0,18.5,29.99,West,269,0.0,0.0,73,0.00,,BKN034,0.00,221.00,VWS V14.01,2013-01-06 15:31:00,
2013-01-06 10:41:00,26.0,18.5,29.99,West,269,2.0,2.0,73,0.00,,BKN028,0.00,165.00,VWS V14.01,2013-01-06 15:41:00,
2013-01-06 10:51:00,26.6,19.1,29.98,West,269,2.0,3.0,73,0.00,,BKN028,0.00,172.00,VWS V14.01,2013-01-06 15:51:00,
2013-01-06 11:01:00,26.9,19.1,29.96,West,276,2.0,4.0,72,0.00,,BKN028,0.00,93.00,VWS V14.01,2013-01-06 16:01:00,
2013-01-06 11:11:00,27.2,19.4,29.96,West,276,2.0,3.0,72,0.00,,BKN060,0.00,141.00,VWS V14.01,2013-01-06 16:11:00,
2013-01-06 11:21:00,27.6,19.4,29.96,West,276,1.0,3.0,71,0.00,,BKN060,0.00,197.00,VWS V14.01,2013-01-06 16:21:00,
2013-01-06 11:31:00,28.2,20.0,29.94,WSW,253,1.0,7.0,71,0.00,,BKN060,0.00,146.00,VWS V14.01,2013-01-06 16:31:00,
2013-01-06 11:41:00,29.3,20.4,29.94,West,262,4.0,5.0,69,0.00,,OVC060,0.00,243.00,VWS V14.01,2013-01-06 16:41:00,
2013-01-06 11:51:00,30.4,20.8,29.93,WSW,240,7.0,10.0,67,0.00,,OVC060,0.00,290.00,VWS V14.01,2013-01-06 16:51:00,
2013-01-06 12:01:00,30.7,20.7,29.92,WSW,247,2.0,7.0,66,0.00,,OVC060,0.00,155.00,VWS V14.01,2013-01-06 17:01:00,
2013-01-06 12:11:00,30.9,21.2,29.92,WSW,250,2.0,4.0,67,0.00,,OVC060,0.00,181.00,VWS V14.01,2013-01-06 17:11:00,
2013-01-06 12:21:00,31.0,21.7,29.92,WSW,250,2.0,4.0,68,0.00,,OVC060,0.00,190.00,VWS V14.01,2013-01-06 17:21:00,
2013-01-06 12:31:00,31.3,21.6,29.92,WSW,250,3.0,4.0,67,0.00,,OVC060,0.00,162.00,VWS V14.01,2013-01-06 17:31:00,
2013-01-06 12:41:00,31.5,21.8,29.92,WSW,250,2.0,4.0,67,0.00,,OVC060,0.00,142.00,VWS V14.01,2013-01-06 17:41:00,
2013-01-06 12:51:00,31.9,22.5,29.91,West,259,3.0,5.0,68,0.00,,OVC060,0.00,156.00,VWS V14.01,2013-01-06 17:51:00,
2013-01-06 13:01:00,32.1,22.8,29.91,West,259,2.0,3.0,68,0.00,,OVC060,0.00,142.00,VWS V14.01,2013-01-06 18:01:00,
2013-01-06 13:11:00,31.8,22.5,29.91,West,259,0.0,2.0,68,0.00,,OVC060,0.00,148.00,VWS V14.01,2013-01-06 18:11:00,
2013-01-06 13:21:00,32.1,22.4,29.91,West,259,0.0,0.0,67,0.00,,OVC060,0.00,181.00,VWS V14.01,2013-01-06 18:21:00,
2013-01-06 13:31:00,32.5,22.1,29.91,West,259,0.0,0.0,65,0.00,,OVC060,0.00,149.00,VWS V14.01,2013-01-06 18:31:00,
2013-01-06 13:41:00,32.2,22.5,29.91,West,260,0.0,3.0,67,0.00,,OVC060,0.00,113.00,VWS V14.01,2013-01-06 18:41:00,
2013-01-06 13:51:00,32.5,22.8,29.91,NE,35,0.0,3.0,67,0.00,,OVC060,0.00,144.00,VWS V14.01,2013-01-06 18:51:00,
2013-01-06 14:01:00,32.8,23.1,29.91,NE,35,3.0,3.0,67,0.00,,OVC060,0.00,162.00,VWS V14.01,2013-01-06 19:01:00,
2013-01-06 14:11:00,32.9,23.5,29.91,NE,34,2.0,3.0,68,0.00,,BKN060,0.00,109.00,VWS V14.01,2013-01-06 19:11:00,
2013-01-06 14:21:00,32.9,24.2,29.91,NE,34,0.0,3.0,70,0.01,,BKN060,0.01,93.00,VWS V14.01,2013-01-06 19:21:00,
2013-01-06 14:31:00,32.4,23.4,29.90,NE,35,0.0,0.0,69,0.01,,BKN060,0.01,81.00,VWS V14.01,2013-01-06 19:31:00,
2013-01-06 14:51:00,33.1,24.4,29.90,NE,34,0.0,0.0,70,0.01,,BKN060,0.01,104.00,VWS V14.01,2013-01-06 19:51:00,
2013-01-06 15:01:00,33.5,24.8,29.90,NE,35,0.0,0.0,70,0.01,,BKN060,0.01,95.00,VWS V14.01,2013-01-06 20:01:00,
2013-01-06 15:11:00,33.7,24.6,29.90,NE,35,0.0,0.0,69,0.01,,BKN060,0.01,88.00,VWS V14.01,2013-01-06 20:11:00,
2013-01-06 15:21:00,33.8,24.4,29.89,West,272,0.0,4.0,68,0.01,,BKN060,0.01,67.00,VWS V14.01,2013-01-06 20:21:00,
2013-01-06 15:31:00,33.2,24.5,29.89,NW,312,0.0,4.0,70,0.00,,BKN060,0.01,30.00,VWS V14.01,2013-01-06 20:31:00,
2013-01-06 15:41:00,32.1,24.8,29.89,NW,312,0.0,2.0,74,0.00,,OVC060,0.01,47.00,VWS V14.01,2013-01-06 20:41:00,
2013-01-06 15:51:00,32.1,24.8,29.89,NW,312,0.0,2.0,74,0.00,,OVC060,0.01,26.00,VWS V14.01,2013-01-06 20:51:00,
2013-01-06 16:01:00,31.9,24.9,29.89,NW,312,0.0,0.0,75,0.00,,OVC060,0.01,21.00,VWS V14.01,2013-01-06 21:01:00,
2013-01-06 16:11:00,31.3,24.3,29.89,North,5,3.0,4.0,75,0.00,,SCT060,0.01,11.00,VWS V14.01,2013-01-06 21:11:00,
2013-01-06 16:21:00,30.7,24.7,29.89,North,5,0.0,3.0,78,0.00,,SCT060,0.01,5.00,VWS V14.01,2013-01-06 21:21:00,
2013-01-06 16:31:00,30.1,24.4,29.89,North,5,0.0,1.0,79,0.00,,SCT060,0.01,0.00,VWS V14.01,2013-01-06 21:31:00,
2013-01-06 16:41:00,30.1,24.7,29.89,North,5,0.0,2.0,80,0.00,,BKN050,0.01,0.00,VWS V14.01,2013-01-06 21:41:00,
2013-01-06 16:51:00,30.0,24.6,29.90,North,5,0.0,2.0,80,0.00,,BKN050,0.01,0.00,VWS V14.01,2013-01-06 21:51:00,
2013-01-06 17:01:00,29.8,24.7,29.90,North,5,0.0,0.0,81,0.00,,BKN050,0.01,0.00,VWS V14.01,2013-01-06 22:01:00,
2013-01-06 17:11:00,29.7,24.6,29.90,North,5,0.0,0.0,81,0.00,,BKN050,0.01,0.00,VWS V14.01,2013-01-06 22:11:00,
2013-01-06 17:21:00,29.7,24.9,29.90,North,5,0.0,2.0,82,0.00,,BKN050,0.01,0.00,VWS V14.01,2013-01-06 22:21:00,
2013-01-06 17:31:00,29.7,25.2,29.91,North,5,0.0,0.0,83,0.00,,BKN050,0.01,0.00,VWS V14.01,2013-01-06 22:31:00,
2013-01-06 17:41:00,29.7,25.2,29.91,North,5,0.0,0.0,83,0.00,,BKN050,0.01,0.00,VWS V14.01,2013-01-06 22:41:00,
2013-01-06 17:51:00,29.8,25.3,29.90,North,5,0.0,0.0,83,0.00,,BKN050,0.01,0.00,VWS V14.01,2013-01-06 22:51:00,
2013-01-06 18:01:00,29.8,25.0,29.91,North,5,0.0,1.0,82,0.00,,BKN050,0.01,0.00,VWS V14.01,2013-01-06 23:01:00,
2013-01-06 18:11:00,29.8,25.6,29.91,North,5,0.0,0.0,84,0.00,,OVC050,0.01,0.00,VWS V14.01,2013-01-06 23:11:00,
2013-01-06 18:21:00,29.7,25.2,29.91,North,5,0.0,0.0,83,0.00,,OVC050,0.01,0.00,VWS V14.01,2013-01-06 23:21:00,
2013-01-06 18:31:00,29.7,25.2,29.91,North,5,0.0,0.0,83,0.00,,OVC050,0.01,0.00,VWS V14.01,2013-01-06 23:31:00,
2013-01-06 18:41:00,29.8,25.0,29.91,North,5,0.0,0.0,82,0.00,,OVC050,0.01,0.00,VWS V14.01,2013-01-06 23:41:00,
2013-01-06 18:51:00,29.8,25.0,29.91,North,5,0.0,0.0,82,0.00,,OVC050,0.01,0.00,VWS V14.01,2013-01-06 23:51:00,
2013-01-06 19:01:00,29.8,25.0,29.91,North,5,0.0,0.0,82,0.00,,OVC050,0.01,0.00,VWS V14.01,2013-01-07 00:01:00,
2013-01-06 19:11:00,29.5,25.0,29.91,North,5,0.0,0.0,83,0.00,,OVC050,0.01,0.00,VWS V14.01,2013-01-07 00:11:00,
2013-01-06 19:21:00,29.4,24.9,29.92,North,5,0.0,0.0,83,0.00,,OVC050,0.01,0.00,VWS V14.01,2013-01-07 00:21:00,
2013-01-06 19:31:00,29.3,24.8,29.92,North,5,0.0,0.0,83,0.00,,OVC050,0.01,0.00,VWS V14.01,2013-01-07 00:31:00,
2013-01-06 19:41:00,29.1,24.9,29.92,North,5,0.0,0.0,84,0.00,,SCT042,0.01,0.00,VWS V14.01,2013-01-07 00:41:00,
2013-01-06 19:51:00,28.8,24.9,29.92,North,5,0.0,0.0,85,0.00,,SCT042,0.01,0.00,VWS V14.01,2013-01-07 00:51:00,
2013-01-06 20:01:00,29.0,25.1,29.92,North,5,0.0,0.0,85,0.00,,SCT042,0.01,0.00,VWS V14.01,2013-01-07 01:01:00,
2013-01-06 20:11:00,29.1,25.2,29.92,North,5,0.0,0.0,85,0.00,,FEW120,0.01,0.00,VWS V14.01,2013-01-07 01:11:00,
2013-01-06 20:21:00,29.1,25.2,29.92,North,5,0.0,0.0,85,0.00,,FEW120,0.01,0.00,VWS V14.01,2013-01-07 01:21:00,
2013-01-06 20:31:00,29.4,25.7,29.91,North,5,0.0,0.0,86,0.00,,FEW120,0.01,0.00,VWS V14.01,2013-01-07 01:31:00,
2013-01-06 20:41:00,29.4,25.7,29.91,North,5,0.0,0.0,86,0.00,,OVC120,0.01,0.00,VWS V14.01,2013-01-07 01:41:00,
2013-01-06 20:51:00,28.7,25.3,29.91,North,5,0.0,0.0,87,0.00,,OVC120,0.01,0.00,VWS V14.01,2013-01-07 01:51:00,
2013-01-06 21:01:00,28.5,25.1,29.91,North,5,0.0,0.0,87,0.00,,OVC120,0.01,0.00,VWS V14.01,2013-01-07 02:01:00,
2013-01-06 21:11:00,28.1,25.0,29.91,North,5,0.0,0.0,88,0.00,,BKN110,0.01,0.00,VWS V14.01,2013-01-07 02:11:00,
2013-01-06 21:21:00,28.2,25.1,29.90,North,5,0.0,0.0,88,0.00,,BKN110,0.01,0.00,VWS V14.01,2013-01-07 02:21:00,
2013-01-06 21:31:00,28.5,25.4,29.90,North,5,0.0,0.0,88,0.00,,BKN110,0.01,0.00,VWS V14.01,2013-01-07 02:31:00,
2013-01-06 21:41:00,28.7,25.6,29.90,North,5,0.0,0.0,88,0.00,,OVC110,0.01,0.00,VWS V14.01,2013-01-07 02:41:00,
2013-01-06 21:51:00,27.6,24.5,29.91,North,5,0.0,0.0,88,0.00,,OVC110,0.01,0.00,VWS V14.01,2013-01-07 02:51:00,
2013-01-06 22:01:00,27.9,25.1,29.91,North,5,0.0,0.0,89,0.00,,OVC110,0.01,0.00,VWS V14.01,2013-01-07 03:01:00,
2013-01-06 22:11:00,28.2,25.4,29.91,North,5,0.0,0.0,89,0.00,,OVC110,0.01,0.00,VWS V14.01,2013-01-07 03:11:00,
2013-01-06 22:21:00,27.9,25.1,29.90,North,5,0.0,0.0,89,0.00,,OVC110,0.01,0.00,VWS V14.01,2013-01-07 03:21:00,
2013-01-06 22:31:00,27.9,25.4,29.91,North,5,0.0,0.0,90,0.00,,OVC110,0.01,0.00,VWS V14.01,2013-01-07 03:31:00,
2013-01-06 22:41:00,27.9,25.4,29.91,North,5,0.0,0.0,90,0.00,,BKN110,0.01,0.00,VWS V14.01,2013-01-07 03:41:00,
2013-01-06 22:51:00,28.4,25.9,29.91,North,5,0.0,0.0,90,0.00,,BKN110,0.01,0.00,VWS V14.01,2013-01-07 03:51:00,
2013-01-06 23:01:00,27.6,25.1,29.91,North,5,0.0,0.0,90,0.00,,BKN110,0.01,0.00,VWS V14.01,2013-01-07 04:01:00,
2013-01-06 23:11:00,27.3,24.8,29.91,North,5,0.0,0.0,90,0.00,,CLR,0.01,0.00,VWS V14.01,2013-01-07 04:11:00,
2013-01-06 23:21:00,27.2,24.9,29.90,North,5,0.0,0.0,91,0.00,,CLR,0.01,0.00,VWS V14.01,2013-01-07 04:21:00,
2013-01-06 23:31:00,27.2,24.9,29.91,North,5,0.0,0.0,91,0.00,,CLR,0.01,0.00,VWS V14.01,2013-01-07 04:31:00,
2013-01-06 23:41:00,26.9,24.6,29.91,North,5,0.0,0.0,91,0.00,,CLR,0.01,0.00,VWS V14.01,2013-01-07 04:41:00,
2013-01-06 23:51:00,27.3,25.3,29.91,North,5,0.0,0.0,92,0.00,,CLR,0.01,0.00,VWS V14.01,2013-01-07 04:51:00,